Tracking 19247 objects as of 24-Sep-2018
HD Live streaming from Space Station
objects crossing your sky now

USA 118

Track USA 118 now!
USA 118 is classified as:


NORAD ID: 23855
Int'l Code: 1996-026A
Perigee: 34,075.7 km
Apogee: 37,512.8 km
Inclination: 9.4 °
Period: 1,436.1 minutes
Semi major axis: 42165 km
RCS: Unknown
Launch date: April 24, 1996
Source: United States (US)
Launch site: AIR FORCE EASTERN TEST RANGE (AFETR)

In the $1 billion range; ELINT; signals intelligence.
aabbcc
Your satellite tracking list
Your tracking list is empty




NASA's NSSDC Master Catalog

Two Line Element Set (TLE):
1 23855U 96026A   18046.45659606 0.00000000  00000-0  00000-0 0    09
2 23855   9.4496 359.3377 0407580 252.9462 102.6290  1.00270000    08
Source of the keplerian elements: McCants